This is the latest recevied weather packets stored in our database for station/object WW5JC. If no packets are shown the sender has not sent any weather packets the latest 10 day(s).
| Time | Temp. | Humidity | Pressure | Rain* | Wind** | Luminosity | Snow |
|---|---|---|---|---|---|---|---|
| 1778017047 | 27.78° C | 76% | 1006.1 hPa | 0 mm | - | 226 W/m² | - |
| 1778016745 | 27.78° C | 76% | 1006.1 hPa | 0 mm | - | 366 W/m² | - |
| 1778016440 | 27.78° C | 76% | 1006.1 hPa | 0 mm | - | 626 W/m² | - |
| 1778016137 | 27.78° C | 77% | 1006.2 hPa | 0 mm | - | 291 W/m² | - |
| 1778015835 | 27.78° C | 76% | 1006.4 hPa | 0 mm | - | 251 W/m² | - |
| 1778015532 | 27.22° C | 79% | 1006.3 hPa | 0 mm | - | 322 W/m² | - |
| 1778015229 | 27.22° C | 78% | 1006.3 hPa | 0 mm | - | 250 W/m² | - |
| 1778014925 | 27.22° C | 77% | 1006.3 hPa | 0 mm | - | 192 W/m² | - |
| 1778014623 | 27.22° C | 78% | 1006.4 hPa | 0 mm | - | 275 W/m² | - |
| 1778014320 | 27.78° C | 77% | 1006.5 hPa | 0 mm | - | 345 W/m² | - |
| 1778014012 | 27.78° C | 77% | 1006.4 hPa | 0 mm | - | 755 W/m² | - |
| 1778013710 | 27.22° C | 79% | 1006.7 hPa | 0 mm | - | 229 W/m² | - |
| 1778013406 | 27.22° C | 79% | 1006.6 hPa | 0 mm | - | 297 W/m² | - |
| 1778013102 | 27.22° C | 78% | 1006.5 hPa | 0 mm | - | 380 W/m² | - |
| 1778012798 | 26.67° C | 79% | 1006.5 hPa | 0 mm | - | 544 W/m² | - |
| 1778012494 | 26.67° C | 78% | 1006.6 hPa | 0 mm | - | 337 W/m² | - |
| 1778012186 | 26.67° C | 79% | 1006.7 hPa | 0 mm | - | 167 W/m² | - |
| 1778011883 | 26.67° C | 79% | 1006.8 hPa | 0 mm | - | 199 W/m² | - |
| 1778011581 | 26.67° C | 80% | 1006.7 hPa | 0 mm | - | 190 W/m² | - |
| 1778011278 | 26.67° C | 78% | 1006.8 hPa | 0 mm | - | 246 W/m² | - |
| 1778010974 | 26.67° C | 78% | 1006.4 hPa | 0 mm | - | 238 W/m² | - |
| 1778010672 | 26.67° C | 78% | 1006.5 hPa | 0 mm | - | 243 W/m² | - |
| 1778010369 | 26.67° C | 79% | 1006.7 hPa | 0 mm | - | 205 W/m² | - |
| 1778010064 | 26.67° C | 78% | 1006.7 hPa | 0 mm | - | 242 W/m² | - |
| 1778009761 | 26.67° C | 77% | 1006.6 hPa | 0 mm | - | 296 W/m² | - |
* Rain latest hour (hover to see other rain measurements)
** Current wind speed in m/s (hover to see current wind gust speed)